[[{"header":{"parameterUnit":"m.s-1","parameterCategory":1,"la1":30.2991,"la2":30.254,"lo1":-89.0895,"lo2":-89.0444,"dy":0.0017,"dx":0.0017,"nx":28,"ny":28,"refTime":"2025-12-10T03:00:00:Z","depth":0,"parameterNumber":2,"parameterNumberName":"U-component_of_WINDS"},"data":[0,0,0,0,0,0,0,0,0,0,0,0,0,0,0,0,0,0,0,0,0,0,0,0,0,0,0,0,0,0,0,0,0,0,0,0,0,0,0,0,0,0,0,0,0,0,0,0,0,0,0,0,0,0,0,0,0,0,-0.3143,-0.3143,0,-0.3142,-0.3142,-0.3142,-0.3108,-0.3108,-0.3107,-0.3106,-0.3106,-0.3107,-0.3108,0,0,0,0,0,0,0,0,0,0,0,0,0,-0.3118,-0.3119,-0.3143,-0.3143,-0.3143,-0.3142,-0.3142,-0.3142,-0.3109,-0.3107,-0.3106,-0.3105,-0.3106,-0.3107,-0.3108,0,0,0,0,0,0,0,0,0,0,0,0,0,-0.3124,-0.3119,-0.3143,-0.3126,-0.3125,-0.3142,-0.3142,-0.3142,-0.3109,-0.3107,-0.3106,-0.3105,-0.3106,-0.3107,-0.3108,-0.3142,0,0,-0.3112,-0.3112,0,0,0,0,0,0,0,0,-0.3124,-0.3125,-0.3129,-0.3127,-0.3126,-0.3124,-0.3133,-0.3142,-0.3109,-0.3115,-0.3106,-0.3104,-0.3113,-0.3114,-0.3117,-0.3142,-0.3142,-0.3112,-0.3113,-0.3113,-0.3114,0,0,0,0,0,0,0,-0.3124,-0.3125,-0.3142,-0.3129,-0.3127,-0.3119,-0.3119,-0.3135,-0.3121,-0.3114,-0.3112,-0.3112,-0.3112,-0.3115,-0.3116,-0.3142,-0.3112,-0.3113,-0.3114,-0.3114,-0.3197,-0.3199,0,0,0,0,0,0,-0.3125,-0.3125,-0.3143,-0.3142,-0.3122,-0.3121,-0.312,-0.3126,-0.3121,-0.3119,-0.3113,-0.311,-0.3114,-0.3115,-0.3116,-0.3157,-0.3113,-0.3114,-0.3115,-0.3196,-0.3197,-0.3199,0,0,0,0,0,0,-0.3125,-0.3127,-0.3143,-0.3133,-0.3134,-0.3123,-0.3129,-0.3126,-0.313,-0.312,-0.3118,-0.3119,-0.3113,-0.3114,-0.3136,-0.3156,-0.3115,-0.3116,-0.3194,-0.3196,-0.3198,-0.3238,0,0,0,0,0,0,-0.3124,-0.3127,-0.3139,-0.3134,-0.3135,-0.3162,-0.313,-0.3127,-0.3132,-0.3128,-0.3125,-0.3123,-0.3112,-0.3134,-0.3137,-0.3157,-0.3117,-0.3192,-0.3195,-0.3198,-0.3234,-0.3241,-0.3246,0,0,0,0,0,-0.3124,-0.315,-0.314,-0.3142,-0.315,-0.3163,-0.3164,-0.315,-0.3133,-0.3146,-0.314,-0.3123,-0.3154,-0.3137,-0.314,-0.3161,-0.3191,-0.3194,-0.3197,-0.3232,-0.324,-0.3246,0,0,0,0,0,0,-0.3159,-0.3149,-0.3138,-0.3163,-0.3164,-0.3157,-0.3173,-0.3159,-0.3165,-0.3161,-0.3144,-0.3144,-0.3169,-0.3167,-0.3148,-0.3194,-0.3169,-0.3173,-0.3194,-0.3202,-0.3208,-0.3208,-0.3118,0,0,0,0,0,-0.3169,-0.318,-0.3171,-0.3195,-0.3196,-0.3184,-0.319,-0.3179,-0.318,-0.318,-0.3176,-0.3177,-0.3188,-0.3194,-0.3203,-0.3234,-0.3234,-0.325,-0.3256,-0.3261,-0.3264,-0.3282,-0.329,-0.321,-0.321,-0.321,0,0,-0.3191,-0.3188,-0.3195,-0.3202,-0.3201,-0.3214,-0.3185,-0.3199,-0.3209,-0.3182,-0.3203,-0.32,-0.3201,-0.3228,-0.3239,-0.3227,-0.3287,-0.3265,-0.3269,-0.327,-0.3287,-0.3294,-0.3301,-0.3212,-0.3212,-0.3211,0,0,-0.3238,-0.3236,-0.3256,-0.3256,-0.3256,-0.3249,-0.3254,-0.3249,-0.3246,-0.3266,-0.3247,-0.3259,-0.3276,-0.3278,-0.3281,-0.3331,-0.3316,-0.3334,-0.3366,-0.3383,-0.339,-0.3395,-0.3414,-0.3421,-0.3338,-0.3338,-0.3338,0,-0.3266,-0.3284,-0.3268,-0.3284,-0.3288,-0.3265,-0.3286,-0.3287,-0.329,-0.3294,-0.3279,-0.3302,-0.3301,-0.3329,-0.3341,-0.3344,-0.335,-0.3335,-0.339,-0.3395,-0.34,-0.3418,-0.3426,-0.3341,-0.334,-0.334,-0.334,0,-0.3319,-0.3331,-0.3348,-0.3351,-0.3357,-0.3375,-0.3364,-0.3372,-0.3361,-0.3355,-0.3377,-0.3375,-0.3384,-0.339,-0.3379,-0.3417,-0.3409,-0.3393,-0.3368,-0.3411,-0.3427,-0.3434,-0.3344,-0.3343,-0.3342,-0.3342,0,0,-0.3387,-0.3383,-0.3389,-0.3391,-0.339,-0.34,-0.3418,-0.3426,-0.3434,-0.3437,-0.3453,-0.3469,-0.3454,-0.3458,-0.3448,-0.3463,-0.3505,-0.3445,-0.3445,-0.3457,-0.3548,-0.3561,-0.3569,-0.3495,-0.3496,-0.3497,-0.3548,0,-0.3434,-0.3464,-0.3451,-0.3483,-0.3495,-0.3474,-0.349,-0.3491,-0.3487,-0.3498,-0.3493,-0.3505,-0.3484,-0.3486,-0.3501,-0.3496,-0.3523,-0.3492,-0.351,-0.3511,-0.3511,-0.3577,-0.3591,-0.3639,-0.3554,-0.3555,-0.3556,0,-0.3492,-0.3498,-0.353,-0.3529,-0.3533,-0.3548,-0.3555,-0.3565,-0.3567,-0.3563,-0.3568,-0.3555,-0.3574,-0.3549,-0.3576,-0.3555,-0.3562,-0.3561,-0.3563,-0.3565,-0.3537,-0.3582,-0.3654,-0.3662,-0.3566,-0.3565,-0.3565,0,-0.354,-0.3556,-0.3578,-0.358,-0.3578,-0.3589,-0.3589,-0.359,-0.3596,-0.3603,-0.3607,-0.3616,-0.3622,-0.3629,-0.362,-0.3602,-0.3648,-0.3622,-0.3647,-0.3647,-0.3658,-0.3657,-0.3733,-0.3661,-0.366,-0.366,-0.366,0,-0.3594,-0.3615,-0.36,-0.3614,-0.3638,-0.3623,-0.3648,-0.3645,-0.3646,-0.366,-0.3642,-0.3656,-0.3642,-0.3654,-0.3647,-0.3671,-0.3673,-0.3671,-0.3669,-0.3674,-0.3674,-0.3678,-0.3675,-0.3662,-0.3662,-0.3661,-0.3661,0,-0.3652,-0.3642,-0.3665,-0.3662,-0.3662,-0.368,-0.3677,-0.369,-0.3685,-0.3703,-0.3706,-0.3698,-0.3712,-0.3703,-0.3717,-0.3712,-0.3745,-0.3737,-0.3744,-0.3742,-0.3768,-0.3766,-0.385,-0.3861,-0.378,-0.3781,-0.3782,0,-0.3687,-0.3703,-0.3702,-0.3709,-0.371,-0.3723,-0.373,-0.3717,-0.3725,-0.3729,-0.3742,-0.3755,-0.3764,-0.3788,-0.3784,-0.3795,-0.3789,-0.3818,-0.3791,-0.3795,-0.3791,-0.3791,-0.3793,-0.3823,-0.3824,-0.3825,-0.3826,0,-0.3751,-0.3746,-0.3756,-0.3765,-0.3773,-0.378,-0.3785,-0.3792,-0.378,-0.379,-0.3804,-0.3811,-0.3826,-0.3839,-0.3849,-0.385,-0.3837,-0.3834,-0.3841,-0.3845,-0.3849,-0.3849,-0.376,-0.3832,-0.3832,-0.3831,-0.3831,-0.383,-0.38,-0.3814,-0.3815,-0.3827,-0.383,-0.3835,-0.3848,-0.3845,-0.3856,-0.3867,-0.3859,-0.3876,-0.388,-0.3891,-0.3894,-0.3908,-0.3897,-0.3906,-0.3909,-0.3911,-0.3916,-0.3846,-0.391,-0.391,-0.391,-0.3909,-0.3909,0,-0.3864,-0.3864,-0.3875,-0.3883,-0.3893,-0.3879,-0.3884,-0.3894,-0.3909,-0.3913,-0.3923,-0.3941,-0.3954,-0.3951,-0.3964,-0.3976,-0.397,-0.398,-0.3979,-0.398,-0.3924,-0.3918,-0.3984,-0.3984,-0.3984,-0.3984,-0.3984,-0.3984,-0.3899,-0.3922,-0.3917,-0.3942,-0.3943,-0.3959,-0.3964,-0.3969,-0.3973,-0.3993,-0.4003,-0.4002,-0.4004,-0.4016,-0.4028,-0.4027,-0.4033,-0.4046,-0.4043,-0.3991,-0.3983,-0.3976,-0.397,-0.4047,-0.4047,-0.4097,-0.4097,-0.4098]},{"header":{"parameterUnit":"m.s-1","parameterCategory":1,"la1":30.2991,"la2":30.254,"lo1":-89.0895,"lo2":-89.0444,"dy":0.0017,"dx":0.0017,"nx":28,"ny":28,"refTime":"2025-12-10T03:00:00:Z","depth":0,"parameterNumber":3,"parameterNumberName":"V-component_of_WINDS"},"data":[0,0,0,0,0,0,0,0,0,0,0,0,0,0,0,0,0,0,0,0,0,0,0,0,0,0,0,0,0,0,0,0,0,0,0,0,0,0,0,0,0,0,0,0,0,0,0,0,0,0,0,0,0,0,0,0,0,0,0.5017,0.5017,0,0.4964,0.4963,0.4963,0.4945,0.4946,0.4946,0.4946,0.489,0.4888,0.4887,0,0,0,0,0,0,0,0,0,0,0,0,0,0.5102,0.5101,0.5017,0.5016,0.5016,0.4964,0.4963,0.4963,0.4945,0.4946,0.4946,0.4946,0.4891,0.4889,0.4887,0,0,0,0,0,0,0,0,0,0,0,0,0,0.5059,0.51,0.5017,0.5001,0.4999,0.4964,0.4963,0.4962,0.4945,0.4946,0.4946,0.4946,0.4891,0.4889,0.4886,0.4863,0,0,0.4879,0.4877,0,0,0,0,0,0,0,0,0.5061,0.5056,0.5004,0.5002,0.5,0.4962,0.4973,0.4929,0.4945,0.4966,0.4946,0.4947,0.4914,0.4909,0.4898,0.4861,0.4858,0.4878,0.4877,0.4876,0.4875,0,0,0,0,0,0,0,0.5064,0.5058,0.4996,0.5003,0.5001,0.4996,0.499,0.4964,0.4938,0.4964,0.4963,0.4957,0.4912,0.4901,0.4897,0.4857,0.4878,0.4876,0.4874,0.4873,0.4798,0.4797,0,0,0,0,0,0,0.507,0.5061,0.4998,0.4994,0.5032,0.4994,0.4988,0.4974,0.4938,0.4933,0.4956,0.4956,0.4905,0.49,0.4895,0.4865,0.4876,0.4873,0.4872,0.4798,0.4798,0.4797,0,0,0,0,0,0,0.5072,0.5065,0.5,0.5027,0.5018,0.4992,0.4977,0.4972,0.4961,0.4933,0.4928,0.4949,0.4905,0.4899,0.4871,0.4863,0.4872,0.487,0.4799,0.4798,0.4797,0.4806,0,0,0,0,0,0,0.5075,0.5066,0.5057,0.5027,0.5017,0.4978,0.4976,0.4971,0.4957,0.4956,0.4925,0.492,0.4905,0.4875,0.4869,0.486,0.4868,0.4799,0.4798,0.4798,0.4807,0.4806,0.4805,0,0,0,0,0,0.5078,0.5061,0.5057,0.5049,0.5006,0.4977,0.4971,0.4955,0.4956,0.4947,0.4929,0.4921,0.4865,0.4873,0.4865,0.4855,0.48,0.4799,0.4798,0.4807,0.4806,0.4805,0,0,0,0,0,0,0.5091,0.5057,0.5052,0.5025,0.5004,0.4974,0.4962,0.4954,0.4932,0.4932,0.4912,0.4905,0.4879,0.4865,0.4874,0.4831,0.4832,0.4829,0.4842,0.4841,0.484,0.4844,0.4866,0,0,0,0,0,0.5091,0.5071,0.5042,0.5022,0.5011,0.4989,0.4976,0.4965,0.4942,0.4933,0.4913,0.4891,0.4868,0.4854,0.4831,0.4804,0.4797,0.4794,0.4793,0.4793,0.4791,0.4775,0.4773,0.4794,0.4794,0.4794,0,0,0.509,0.5069,0.5058,0.5024,0.5006,0.4985,0.4981,0.496,0.4944,0.4929,0.4903,0.4887,0.4861,0.4834,0.4821,0.4821,0.4784,0.4792,0.4792,0.479,0.4774,0.4772,0.477,0.4793,0.4793,0.4793,0,0,0.5078,0.5061,0.5041,0.5024,0.4998,0.4983,0.4978,0.4949,0.4938,0.4911,0.49,0.4881,0.4842,0.4824,0.481,0.4791,0.4783,0.4784,0.4781,0.4766,0.4764,0.4763,0.4755,0.4753,0.4782,0.4782,0.4782,0,0.508,0.5049,0.5032,0.5011,0.4996,0.4982,0.4962,0.4946,0.4914,0.4904,0.4904,0.4855,0.4837,0.4805,0.48,0.4789,0.4783,0.4787,0.4766,0.4764,0.4762,0.4755,0.4753,0.4782,0.4782,0.4782,0.4782,0,0.5053,0.5032,0.5019,0.4989,0.4972,0.4952,0.4931,0.4917,0.4907,0.4892,0.4864,0.4841,0.4814,0.4806,0.4796,0.4772,0.4773,0.477,0.4771,0.4761,0.4754,0.4751,0.4783,0.4783,0.4783,0.4782,0,0,0.5048,0.5008,0.5004,0.499,0.496,0.4942,0.4921,0.4895,0.4883,0.4861,0.4842,0.481,0.4806,0.479,0.4778,0.4765,0.4751,0.4763,0.4762,0.4762,0.4723,0.4726,0.4723,0.4746,0.4745,0.4745,0.4725,0,0.5032,0.4994,0.4978,0.4947,0.4926,0.4913,0.4894,0.4874,0.4859,0.4839,0.4822,0.48,0.4798,0.4788,0.4774,0.4756,0.4743,0.4757,0.4728,0.4727,0.4734,0.4719,0.4722,0.4704,0.4722,0.4722,0.4722,0,0.5008,0.4986,0.4954,0.4926,0.4917,0.49,0.4875,0.4856,0.4832,0.4822,0.4804,0.4793,0.4769,0.4772,0.4739,0.4749,0.4736,0.4725,0.4724,0.472,0.4723,0.4715,0.4699,0.4696,0.4717,0.4718,0.4718,0,0.5007,0.497,0.4945,0.4933,0.49,0.4889,0.4875,0.4851,0.4836,0.4814,0.4804,0.4779,0.4765,0.4745,0.4727,0.4731,0.4696,0.4697,0.4687,0.4687,0.468,0.468,0.4661,0.4672,0.4672,0.4672,0.4672,0,0.4991,0.4971,0.4944,0.4929,0.4906,0.4888,0.4866,0.485,0.483,0.4811,0.4798,0.478,0.4758,0.4737,0.4723,0.4697,0.4691,0.4682,0.4679,0.4683,0.4684,0.4674,0.4675,0.4671,0.4672,0.4672,0.4672,0,0.4986,0.4967,0.4939,0.491,0.4902,0.4887,0.4862,0.4846,0.4831,0.4807,0.4801,0.4777,0.4752,0.4732,0.4699,0.469,0.4663,0.4659,0.4671,0.4669,0.466,0.4661,0.4633,0.4628,0.4643,0.4643,0.4643,0,0.4976,0.4961,0.493,0.4917,0.4903,0.4882,0.4866,0.4848,0.4832,0.4804,0.4791,0.4766,0.4744,0.4705,0.4684,0.4659,0.4654,0.4646,0.465,0.4655,0.4654,0.4655,0.4653,0.4646,0.4646,0.4645,0.4645,0,0.4961,0.4953,0.4932,0.4907,0.489,0.4869,0.4849,0.4838,0.4816,0.4799,0.4774,0.4757,0.4724,0.4699,0.4671,0.4656,0.4647,0.4644,0.4641,0.4645,0.4652,0.4648,0.467,0.4645,0.4645,0.4645,0.4645,0.4645,0.4953,0.4939,0.4915,0.4892,0.4875,0.4856,0.484,0.4822,0.4801,0.4773,0.4763,0.4737,0.4713,0.4675,0.466,0.4639,0.4638,0.4633,0.4631,0.463,0.463,0.4656,0.4634,0.4634,0.4634,0.4634,0.4634,0,0.4938,0.4922,0.4901,0.4872,0.4854,0.4848,0.4824,0.4809,0.4786,0.4765,0.4744,0.4715,0.469,0.4667,0.4641,0.4629,0.4624,0.4623,0.4623,0.462,0.4633,0.4638,0.4627,0.4627,0.4627,0.4627,0.4627,0.4627,0.4927,0.4902,0.4891,0.4857,0.4841,0.4816,0.4803,0.4785,0.4768,0.4736,0.4716,0.4701,0.4679,0.4651,0.4628,0.4622,0.4613,0.4612,0.4605,0.4618,0.4619,0.462,0.4625,0.4611,0.4611,0.4594,0.4593,0.4593]}]]